Minneapolis Flying Cloud, MN

4:15 AM CDT on May 23, 2017 (GMT -0500)
Flying Cloud

Weather History for KFCM - December, 2011

Change the Weather History Date:

Thursday, December 8, 2011

  Actual Average Record
Temperature  
Mean Temperature 19 °F -  
Max Temperature 28 °F 33 °F 46 °F (1999)
Min Temperature 8 °F 19 °F -8 °F (2007)
Degree Days  
Heating Degree Days 46    
Moisture  
Dew Point 7 °F    
Average Humidity 59    
Maximum Humidity 77    
Minimum Humidity 44    
Precipitation  
Precipitation 0.00 in - - ()
Sea Level Pressure  
Sea Level Pressure 30.18 in    
Wind  
Wind Speed 10 mph (West)    
Max Wind Speed 17 mph    
Max Gust Speed 29 mph    
Visibility 10 miles    
Events      
Averages and records for this station are not official NWS values.
T = Trace of Precipitation, MM = Missing Value Source: NWS Daily Summary

Daily Weather History Graph

Daily Weather History Graph

Search for Another Location

Airport or City:

Trip Planner

Search our weather history database for the weather conditions in past years. The results will help you decide how hot, cold, wet, or windy it might be!

Date:

Astronomy

Dec. 08, 2011 Rise Set
Actual Time 7:38 AM CST 4:32 PM CST
Civil Twilight 7:05 AM CST 5:06 PM CST
Nautical Twilight 6:28 AM CST 5:43 PM CST
Astronomical Twilight 5:52 AM CST 6:18 PM CST
Moon 3:13 PM CST (12/8) 5:50 AM CST (12/8)
Length of Visible Light 10h 01m
Length of Day
8h 54m
Waxing Gibbous, 97% of the Moon is Illuminated
Dec 8
Waxing Gibbous
Dec 10
Full
Dec 17
Last Quarter
Dec 24
New
Jan 1
First Quarter

Hourly Weather History & Observations

Time (CST) Temp. Windchill Dew Point Humidity Pressure Visibility Wind Dir Wind Speed Gust Speed Precip Events Conditions
12:53 AM 28.0 °F 17.5 °F 17.1 °F 63% 30.12 in 10.0 mi NW 12.7 mph 18.4 mph N/A   Mostly Cloudy
1:53 AM 26.1 °F 16.8 °F 14.0 °F 60% 30.11 in 10.0 mi WNW 9.2 mph - N/A   Clear
2:53 AM 21.9 °F 14.5 °F 12.9 °F 68% 30.14 in 10.0 mi West 5.8 mph - N/A   Partly Cloudy
3:53 AM 21.0 °F 14.6 °F 12.9 °F 71% 30.13 in 10.0 mi WSW 4.6 mph - N/A   Scattered Clouds
4:53 AM 19.9 °F 11.1 °F 12.9 °F 74% 30.13 in 10.0 mi WSW 6.9 mph - N/A   Mostly Cloudy
5:53 AM 19.0 °F 8.2 °F 12.9 °F 77% 30.15 in 10.0 mi SW 9.2 mph - N/A   Overcast
6:53 AM 19.9 °F 9.3 °F 12.0 °F 71% 30.17 in 10.0 mi West 9.2 mph - N/A   Overcast
7:53 AM 19.9 °F 8.6 °F 10.9 °F 68% 30.18 in 10.0 mi WNW 10.4 mph - N/A   Clear
8:53 AM 19.9 °F 8.6 °F 10.9 °F 68% 30.20 in 10.0 mi West 10.4 mph - N/A   Clear
9:53 AM 21.9 °F 12.5 °F 10.9 °F 63% 30.22 in 10.0 mi West 8.1 mph - N/A   Clear
10:53 AM 23.0 °F 13.9 °F 7.0 °F 50% 30.21 in 10.0 mi WSW 8.1 mph 19.6 mph N/A   Clear
11:53 AM 24.1 °F 10.6 °F 5.0 °F 44% 30.18 in 10.0 mi West 17.3 mph 26.5 mph N/A   Clear
12:53 PM 23.0 °F 10.1 °F 6.1 °F 48% 30.17 in 10.0 mi West 15.0 mph 28.8 mph N/A   Clear
1:53 PM 23.0 °F 10.1 °F 5.0 °F 46% 30.17 in 10.0 mi West 15.0 mph 23.0 mph N/A   Clear
2:53 PM 21.9 °F 8.7 °F 3.9 °F 46% 30.16 in 10.0 mi West 15.0 mph - N/A   Clear
3:53 PM 21.0 °F 9.3 °F 3.0 °F 46% 30.17 in 10.0 mi West 11.5 mph 18.4 mph N/A   Clear
4:53 PM 19.0 °F 10.0 °F 1.9 °F 47% 30.18 in 10.0 mi WSW 6.9 mph - N/A   Clear
5:53 PM 18.0 °F 7.7 °F 1.0 °F 48% 30.19 in 10.0 mi West 8.1 mph - N/A   Clear
6:53 PM 15.1 °F 6.4 °F -0.0 °F 51% 30.20 in 10.0 mi WSW 5.8 mph - N/A   Clear
7:53 PM 14.0 °F 5.1 °F -0.0 °F 54% 30.21 in 10.0 mi WSW 5.8 mph - N/A   Clear
8:53 PM 12.9 °F 3.8 °F -0.0 °F 56% 30.21 in 10.0 mi West 5.8 mph - N/A   Clear
9:53 PM 12.0 °F 4.1 °F 1.0 °F 61% 30.22 in 10.0 mi WSW 4.6 mph - N/A   Clear
10:53 PM 10.0 °F -0.9 °F -0.0 °F 64% 30.23 in 10.0 mi WSW 6.9 mph - N/A   Clear
11:53 PM 8.1 °F -3.2 °F -0.0 °F 70% 30.24 in 10.0 mi SW 6.9 mph - N/A   Clear